Location: Home
(42.5358°N, 72.7383°W)
Time: 09:00:35
(UTC-04:00)

Kosmos-337 - Pass Details

Date: 09 July 2022
Orbit: 1467 x 1552 km, 74.0° (Epoch: 16 August)

Event Time Altitude Azimuth Distance (km) Brightness Sun altitude
Rises 23:40:02 0° 342° (NNW) 4,732 ? -22.9°
Reaches altitude 10° 23:43:25 10° 351° (N) 3,743 ? -23.1°
Maximum altitude 23:51:40 36° 56° (NE) 2,273 ? -23.5°
Enters shadow 23:57:59 16° 113° (ESE) 3,209 ? -23.8°
